OPS 4682 DEB, 18783

Orbit data source: Space-Track

OPS 4682 DEB, 18783 is space debris in LEO originally from a launch on Sat, 03 Apr 1965 UTC launched from the Air Force Western Test Range (AFWTR). Debris objects in space refer to the collection of defunct objects orbiting the Earth. Examples of debris include non-operational satellites, rocket bodies, and fragments generated from explosions, collisions, or faulty payload assembly.

Loading next visibility...
Identifier
18783, 1965-027AK
Orbit
LEO
Country
Flag of USUS
Related business
Manufacturer
Unknown
Mission
Spacecraft
Bus & Motor
Unknown
Mass
Unknown
Launch date (UTC)
1965-04-03 (61 years ago)
Launch vehicle
Unknown
Launch site
Air Force Western Test Range (AFWTR)
Object type
Payload
Rocket body
Debris
Shape & HBR
Unknown shape, 0.1 m
Radar Cross Section
Small (<0.1 m²)

Expand to show TLE details & history
Last TLE update: 1 day ago

TLE from 1 day ago
0 OPS 4682 DEB
1 18783U 65027AK  26035.21151045 -.00000244  00000-0 -82511-3 0  9994
2 18783  90.2631  23.0471 0026663 194.4065 180.8115 13.00755709563194
Epoch: 2026-02-04T05:04Z
TLE epoch observation values (Epoch: 2026-02-04T05:04:34.502Z)
Latitude
15.18878°
Longitude
172.45093°
Altitude
1,281.69 km
Speed
7.207 km/s
True Right ascension
01h 31m 54s
True Declination
15° 06' 29"
Sunlit
Object was in daylight at epoch
Visualization orbit readout
Latitude
Unknown
Longitude
Unknown
Altitude
Unknown
Speed
Unknown
Apparent Right ascension
Unknown
Apparent Declination
Unknown
Sunlit
N/A
Visualization observer readout
Local Sidereal Time
18:29:33
Azimuth
Unknown
Elevation
Unknown
Doppler factor
Unknown
Orbital elements
Apogee altitude
1,276.609 km
Perigee altitude
1,235.897 km
Semi-major axis
7,634.39 km
Eccentricity
0.00267
Inclination
90.2631°
RAAN
23.0471°
Arg. of periapsis
194.4065°
True anomaly
180.80719°
Mean anomaly
180.8115°
Eccentric anomaly
180.80934°
Mean motion
3.25373 °/min
Orbital period
110.64 mins
BSTAR
-0.00082511
Loading maneuver chart data...
Computing Atmospheric mass density...
Loading historical data...
Loading historical data...
Loading historical data...
Loading historical data...
Loading historical data...
Loading historical data...
Loading historical data...

Documentation

Showing up to 5 results
|